SCP
0 0 0 0 0 0 1 1 1 1 1 1 1 1 0 0 0 0 0 0 0 0 0 0 0 0 0 0 0 0 0 0 0 0 0 0 0 0 0 0 0 0 0
0 0 0 0 0 0 1 1 1 1 1 1 0 0 0 0 0 0 0 0 0 0 0 0 0 0 0 0 0 0 0 0 0 0 0 0 0 0 0 0 0 0 0
0 0 0 0 0 0 0 0 0 0 0 0 0 0 0 0 0 0 0 0 0 0 0 0 0 0 0 0 0 0 0 0 0 0 0 0 0 0 0 0 0 0 0
0 0 0 0 0 0 0 0 0 0 0 0 0 0 0 0 0 0 0 0 0 0 0 0 0 0 0 0 0 0 0 0 0 0 0 0 0 0 0 0 0 0 0
0 0 0 0 0 0 0 0 0 0 0 0 0 0 0 0 0 0 0 0 0 0 0 0 0 0 0 0 0 0 0 0 0 0 0 0 0 0 0 0 0 0 0
0 0 0 0 0 0 0 0 0 0 0 0 0 0 0 0 0 0 0 0 0 0 0 0 0 0 0 0 0 0 0 0 0 0 0 0 0 0 0 0 0 0 0
0 0 0 0 0 1 1 1 0 0 0 0 0 0 0 0 0 0 0 0 0 0 0 0 0 0 0 0 0 0 0 0 0 0 0 0 0 0 0 0 0 0 0
0 0 0 0 1 1 1 1 1 0 0 0 0 0 0 0 0 0 0 0 0 0 0 0 0 0 0 0 0 0 0 0 0 0 0 0 0 0 0 0 0 0 0
1 0 0 1 1 1 1 1 1 1 0 0 0 0 0 0 0 0 0 0 0 0 0 0 0 0 0 0 0 0 0 0 0 0 0 0 0 0 0 0 0 0 0
0 1 1 1 1 1 1 1 1 1 1 0 0 0 0 0 0 0 0 0 0 0 0 0 0 0 0 0 0 0 0 0 0 0 0 0 0 0 0 0 0 0 0
0 0 1 1 1 1 1 1 1 1 1 1 0 0 0 0 0 0 0 0 0 0 0 0 0 0 0 0 0 0 0 0 0 0 0 0 0 0 0 0 0 0 0
0 0 1 1 1 1 1 1 1 1 1 1 1 1 0 0 0 0 0 0 0 0 0 0 0 0 0 0 0 0 0 0 0 0 0 0 0 0 0 0 0 0 0
0 0 0 1 1 1 1 1 1 1 1 1 1 1 1 1 1 1 0 0 0 0 0 0 1 1 1 1 1 1 0 0 0 0 0 0 0 0 0 0 0 1 0
0 0 0 0 1 1 1 1 1 1 1 1 1 1 1 1 1 1 1 1 0 0 1 1 1 1 1 1 1 1 1 1 1 0 0 0 0 0 0 0 0 1 1
1 1 0 0 1 1 1 1 1 1 1 1 1 1 1 1 1 1 1 1 1 1 1 1 1 1 1 1 1 1 1 1 1 0 0 0 0 0 0 0 0 1 1
1 1 1 0 1 1 1 1 0 0 1 1 1 1 1 1 1 1 1 1 0 0 0 0 0 1 1 1 1 1 1 1 0 0 0 0 0 0 0 0 0 1 1
1 1 1 0 0 1 1 1 0 0 0 0 1 1 1 1 0 0 0 0 0 0 0 0 0 0 0 0 0 0 0 0 0 0 0 0 0 0 0 0 1 1 1
1 1 1 0 0 0 0 0 0 0 0 0 0 0 0 0 0 0 0 0 0 0 0 0 0 0 0 0 0 0 0 0 0 0 0 0 0 0 0 0 0 1 1
0 0 0 0 0 0 0 0 0 0 0 0 0 0 0 0 0 0 0 0 0 0 0 0 0 0 0 0 0 0 0 0 0 0 0 0 0 0 0 0 0 0 0
0 0 0 0 0 0 0 0 0 0 0 0 0 0 0 0 0 0 0 0 0 0 0 0 0 0 0 0 0 0 0 0 0 0 0 0 0 0 0 0 0 0 0
0 0 0 0 0 0 0 0 0 0 0 0 0 0 0 0 0 0 0 0 0 0 0 0 0 0 0 0 0 0 0 0 0 0 0 0 0 0 0 0 0 0 0
0 0 0 0 0 0 0 0 0 0 0 0 0 0 0 0 0 0 0 0 0 0 0 0 0 0 0 0 0 0 0 0 0 0 0 0 0 0 0 0 0 0 0
0 0 0 0 0 0 0 0 0 0 0 0 0 0 0 0 0 0 0 0 0 0 0 0 0 0 0 0 0 0 0 0 0 0 0 0 0 0 0 0 0 0 0
0 0 0 0 0 0 0 0 0 0 0 0 0 0 0 0 0 0 0 0 0 0 0 0 0 0 0 0 0 0 0 0 0 0 0 0 0 0 0 0 0 0 0
0 0 0 0 0 0 0 0 0 0 0 0 0 0 0 0 0 0 0 0 0 0 0 0 0 0 0 0 0 0 0 0 0 0 0 0 0 0 0 0 0 0 0
0 0 0 0 0 0 0 0 0 0 0 0 0 0 0 0 0 0 0 0 0 0 0 0 0 0 0 0 0 0 0 0 0 0 0 0 0 0 0 0 0 0 0
Wind_Speed
7 9 16 18 18 18 18 17 17 17 17 17 16 16 16 15 15 14 13 12 11 10 9 7 7 6 7 8 8 9 10 11 11 12 12 12 12 12 13 14 14 11 16
12 12 17 17 18 18 18 17 17 17 17 16 16 15 15 15 14 14 13 12 11 10 9 8 7 7 7 7 8 9 10 10 11 11 11 11 12 12 13 14 13 10 15
14 11 14 16 17 18 17 17 17 17 16 16 15 15 15 14 14 13 12 12 11 10 9 8 7 7 7 8 8 9 9 9 10 10 10 7 9 12 13 13 13 14 14
13 10 12 17 17 18 17 17 17 16 16 15 15 14 14 14 13 13 12 11 10 10 9 8 7 7 7 8 8 8 9 9 9 9 5 5 6 11 12 13 13 14 14
11 9 12 19 17 17 17 16 16 16 15 15 14 14 13 13 12 12 11 10 10 9 8 8 8 7 7 7 8 8 8 9 9 7 4 3 4 11 13 13 13 13 13
10 8 11 18 17 16 16 16 15 15 15 14 14 13 13 12 12 11 10 9 9 8 8 8 7 7 7 7 7 8 8 8 7 4 3 3 4 9 13 13 13 13 13
10 7 9 16 16 16 16 15 15 14 14 13 13 12 12 12 11 11 10 9 9 8 8 7 7 7 7 7 7 7 7 8 5 4 3 3 4 8 12 13 13 13 13
11 8 8 15 16 15 15 15 14 14 13 13 13 12 12 11 11 10 10 9 9 9 8 8 8 8 8 7 7 7 7 7 5 4 4 4 6 8 12 12 12 13 13
9 7 6 7 10 14 14 14 13 13 12 12 12 12 11 11 11 10 10 10 10 9 9 9 9 9 9 8 8 8 8 8 3 3 4 5 9 11 13 13 13 13 14
7 5 5 5 4 5 7 12 12 12 12 12 11 11 11 11 11 11 9 10 10 10 10 10 10 10 10 9 9 9 9 8 4 4 3 5 11 14 14 14 15 14 14
7 5 5 5 4 3 3 7 9 10 10 10 9 11 10 5 5 6 8 10 11 11 11 11 11 11 10 10 11 11 9 4 4 4 4 7 11 14 16 16 16 16 16
8 6 5 5 5 4 3 2 2 2 3 3 3 4 3 3 3 5 6 11 12 12 12 12 12 11 9 5 8 10 4 6 5 5 5 11 12 15 17 17 17 17 17
7 7 5 4 4 4 2 1 1 1 1 2 3 3 2 2 2 3 2 4 5 7 5 6 7 5 5 5 5 5 6 6 5 5 7 13 14 16 17 18 19 19 19
5 5 4 5 4 3 2 2 2 2 2 2 3 3 2 2 2 2 2 2 2 2 3 3 3 5 6 7 7 8 8 6 5 5 7 14 14 15 17 19 20 20 20
4 4 4 5 5 4 3 1 1 1 1 2 2 2 3 3 3 3 2 2 2 2 3 3 3 5 5 6 7 8 9 9 8 7 6 14 16 16 17 19 21 21 21
5 3 3 4 4 3 2 1 0 1 1 2 2 3 3 3 2 2 2 2 2 2 2 3 4 4 5 5 6 7 8 8 8 9 8 10 15 16 17 18 20 22 22
4 4 3 4 4 3 3 2 1 1 1 1 1 2 2 2 3 3 2 2 2 2 3 3 3 3 3 4 6 7 7 8 9 9 9 7 8 13 16 17 18 21 23
5 4 3 3 4 3 3 2 1 0 1 1 1 1 2 3 3 3 2 2 2 2 2 2 2 2 3 4 4 5 6 6 9 10 9 8 7 7 11 17 18 19 22
4 4 4 3 3 3 3 2 1 1 1 1 0 1 1 2 2 2 2 2 2 1 1 2 1 2 3 4 5 5 6 6 8 9 10 10 9 8 7 11 17 19 21
3 4 4 4 4 3 2 2 1 1 0 0 0 1 1 1 1 2 2 2 1 1 1 2 2 2 3 3 5 6 6 7 6 8 9 8 8 10 10 10 9 12 18
2 3 3 3 3 2 2 1 1 0 0 0 0 1 1 1 0 1 2 2 2 2 2 2 2 2 3 2 2 4 5 7 8 7 7 7 9 10 9 10 8 8 7
2 3 3 3 3 2 1 1 1 1 0 0 1 1 1 1 1 2 2 2 2 2 3 3 2 2 2 1 1 2 4 4 3 6 6 7 8 7 9 11 9 9 8
4 4 3 3 2 2 2 2 2 2 2 1 1 2 2 3 3 3 3 3 3 3 3 4 3 4 3 2 3 2 2 3 4 3 4 5 5 6 7 7 10 10 10
5 3 2 2 1 1 2 2 2 2 1 2 1 2 3 3 4 4 3 3 3 3 4 5 4 4 4 3 2 3 4 3 3 4 3 2 4 5 6 7 8 9 9
2 2 2 2 1 1 1 2 2 1 2 1 1 3 3 4 4 4 3 3 3 3 5 5 4 4 4 4 3 2 3 3 4 4 5 4 3 3 4 6 5 6 8
0 1 1 1 1 0 0 1 2 2 2 3 3 3 3 3 4 5 4 4 4 4 4 5 5 5 4 5 4 3 3 3 2 3 4 4 4 3 4 4 5 5 6
Wind_Direction
157 159 158 152 145 138 134 130 127 127 127 130 133 139 145 149 151 153 156 157 158 157 154 147 136 127 121 119 118 117 117 119 122 123 124 123 123 123 122 122 119 121 122
146 155 157 153 147 142 137 134 132 131 131 132 135 138 143 148 152 154 157 160 161 161 158 151 142 134 130 128 126 125 126 128 129 129 129 126 127 126 125 124 124 128 127
144 153 155 153 148 144 141 139 137 136 136 137 139 141 145 149 154 157 160 163 165 165 161 156 150 144 139 136 135 135 135 137 136 131 122 121 129 131 131 131 132 131 130
143 147 152 154 150 146 144 143 142 142 142 142 144 147 150 154 158 161 164 167 169 169 166 163 160 155 150 147 145 144 144 144 138 125 110 125 138 138 139 138 137 136 134
140 142 157 156 153 149 147 146 146 146 147 149 151 154 157 160 164 167 168 171 173 174 173 173 169 165 160 158 156 155 154 153 144 126 116 116 130 148 146 145 143 141 140
137 140 159 157 156 153 152 151 151 152 154 156 158 161 164 167 170 173 174 177 180 182 183 182 178 175 172 170 168 168 168 166 144 124 128 128 142 158 154 153 151 149 147
137 141 158 158 159 158 157 157 158 159 161 163 166 169 172 175 179 181 184 187 191 194 195 194 192 188 186 184 184 183 185 185 143 143 155 162 174 172 165 163 159 157 156
140 140 153 162 163 163 163 163 165 167 169 172 175 178 181 184 187 190 194 199 204 205 205 206 205 201 200 198 198 197 202 205 180 177 178 184 194 191 179 174 170 166 164
136 135 141 155 164 169 170 171 172 175 178 181 185 187 190 193 197 200 203 210 215 216 215 216 215 213 212 211 211 210 214 220 191 188 200 191 200 200 193 185 181 177 173
131 126 124 129 140 156 170 179 181 184 186 190 193 196 199 203 206 210 211 219 225 225 226 226 226 223 221 219 221 221 222 226 210 206 211 205 205 206 203 196 192 188 184
145 136 131 126 126 133 159 191 191 195 197 199 203 206 207 210 213 218 221 226 234 235 235 236 236 233 230 229 229 228 227 214 205 213 212 221 217 215 211 205 199 196 193
163 165 157 146 141 141 178 187 195 203 200 203 205 217 203 191 212 223 232 235 239 241 242 243 244 242 237 228 233 236 226 213 213 220 221 225 225 223 219 211 205 201 200
165 165 168 161 154 158 166 161 184 197 194 212 213 213 207 198 217 229 227 249 252 252 248 251 249 237 228 221 220 221 225 221 220 226 229 229 228 227 225 217 211 206 204
143 152 162 163 163 167 165 181 198 207 202 210 215 206 202 214 216 225 223 234 252 260 253 244 237 236 229 227 226 226 228 228 226 225 230 233 231 231 230 223 216 212 208
130 144 160 169 171 173 177 214 205 222 236 235 231 225 208 217 222 221 226 228 240 244 246 251 250 251 243 236 234 234 234 233 231 228 229 233 231 230 232 229 221 217 213
139 145 150 152 155 156 161 166 168 230 245 236 223 228 213 211 217 225 236 232 237 243 248 250 250 250 250 243 242 241 241 240 235 232 229 234 235 231 232 234 227 220 217
124 127 137 126 124 143 157 179 176 189 233 240 239 240 222 205 200 203 215 230 235 240 244 246 253 254 258 253 253 251 247 243 241 237 234 228 231 234 235 235 233 226 220
122 125 127 128 134 140 143 146 128 167 183 224 220 215 211 208 200 201 212 231 239 241 244 248 248 256 260 261 262 262 256 249 247 242 237 232 226 230 236 236 234 230 224
122 125 122 120 132 141 146 140 143 166 180 204 217 246 238 231 218 213 226 235 234 236 248 267 256 244 263 269 270 264 255 250 249 246 239 235 230 227 225 234 236 233 228
128 130 138 143 146 141 128 115 100 85 28 51 198 265 257 239 220 205 236 251 249 243 247 242 253 247 253 265 276 275 263 253 248 244 241 237 232 231 227 228 232 235 231
152 156 161 153 155 141 128 134 140 197 264 302 273 279 293 297 272 240 256 258 247 240 246 243 242 253 256 240 271 286 275 253 245 243 237 234 235 233 227 224 223 223 227
213 194 178 174 174 178 165 155 159 154 192 255 319 332 334 335 306 269 256 259 253 249 260 245 219 235 252 219 228 292 306 305 270 244 232 231 237 233 231 228 222 216 218
223 214 198 196 192 182 150 104 81 58 27 -0 339 324 322 322 309 291 272 260 253 235 246 242 218 215 237 249 217 224 264 287 312 292 248 239 240 236 236 232 223 216 215
226 214 204 199 200 182 153 152 158 170 221 246 260 287 307 312 307 296 280 269 257 243 244 247 228 217 215 238 245 231 234 249 277 305 306 269 254 247 241 238 230 218 215
231 204 193 178 207 209 179 176 173 202 235 269 288 299 304 305 302 295 283 274 265 253 248 247 239 223 215 220 222 230 241 246 243 259 287 300 293 261 247 238 231 224 217
192 155 155 163 245 297 214 201 203 235 259 281 287 291 292 294 296 292 285 275 269 259 251 247 241 233 225 226 227 222 222 229 234 241 265 286 291 281 264 242 231 227 222